WESTFORD NEEDLES, 2375

Orbit data source: Space-Track

WESTFORD NEEDLES, 2375 is space debris in LEO originally from a launch on Thu, 09 May 1963 UTC launched from the Air Force Western Test Range (AFWTR). Debris objects in space refer to the collection of defunct objects orbiting the Earth. Examples of debris include non-operational satellites, rocket bodies, and fragments generated from explosions, collisions, or faulty payload assembly.

Loading next visibility...
Identifier
2375, 1963-014W
Orbit
LEO
Country
Flag of USUS
Related business
Manufacturer
Unknown
Mission
Spacecraft
Bus & Motor
Unknown
Mass
Unknown
Launch date (UTC)
1963-05-09 (63 years ago)
Launch vehicle
Unknown
Launch site
Air Force Western Test Range (AFWTR)
Object type
Payload
Rocket body
Debris
Shape & HBR
Unknown shape, 0.3 m
Radar Cross Section
Medium (>0.1 m² and <1 m²)

Expand to show TLE details & history
Last TLE update: 1 day ago

TLE from 1 day ago
0 WESTFORD NEEDLES
1 02375U 63014W   26125.49091479 -.00001910  00000-0 -21874+0 0  9994
2 02375  86.5428  58.0366 1610215 222.8377 123.5414  8.74838798367690
Epoch: 2026-05-05T11:46Z
TLE epoch observation values (Epoch: 2026-05-05T11:46:55.037Z)
Latitude
-0.00001°
Longitude
17.94228°
Altitude
4,614.749 km
Speed
5.698 km/s
True Right ascension
03h 52m 08s
True Declination
0° 00' 00"
Sunlit
Object was in daylight at epoch
Visualization orbit readout
Latitude
Unknown
Longitude
Unknown
Altitude
Unknown
Speed
Unknown
Apparent Right ascension
Unknown
Apparent Declination
Unknown
Sunlit
N/A
Visualization observer readout
Local Sidereal Time
19:29:22
Azimuth
Unknown
Elevation
Unknown
Doppler factor
Unknown
Orbital elements
Apogee altitude
5,170.329 km
Perigee altitude
1,967.027 km
Semi-major axis
9,946.815 km
Eccentricity
0.16102
Inclination
86.5428°
RAAN
58.0366°
Arg. of periapsis
222.8377°
True anomaly
137.24669°
Mean anomaly
123.5414°
Eccentric anomaly
130.55141°
Mean motion
2.18785 °/min
Orbital period
164.55 mins
BSTAR
-0.21874
Loading maneuver chart data...
Computing Atmospheric mass density...

Documentation

Showing up to 5 results
|